Humidity-temperature Sensor

Selected Measurement Type: Air Temperature

 
Air Temperature [°C]     6 entries per hour
Showing data from 2/23/2017 (00:00:00 Z) to 2/16/2017 (00:01:00 Z)
Previous Next [ Day | 3-Days | 7-Days ]
First Last
Prev [ Day | 3-Days | 7-Days ] Next
First Last

Start Time:     :
End Time:     :     
Time (in GMT) :00 :50 :40 :30 :20 :10
Previous Next [ Day | 3-Days | 7-Days ]
First Last
Prev [ Day | 3-Days | 7-Days ] Next
First Last


123 => good data
MM => data is determined as missing
-- => data not received/configured
Back to Top Back to Top
2/23/2017 00:00 to 23:10 27.15 27.09 27.08 27.03 27.12 27.09
2/22/2017 23:00 to 22:10 27.11 27.05 27.25 27.07 27.13 27.25
2/22/2017 22:00 to 21:10 27.13 27.31 27.21 27.24 27.18 27.25
2/22/2017 21:00 to 20:10 27.06 27.06 27.05 27.08 27.01 27.05
2/22/2017 20:00 to 19:10 26.94 27.05 27.01 27.00 27.06 27.06
2/22/2017 19:00 to 18:10 27.05 27.11 26.99 27.07 27.11 27.11
2/22/2017 18:00 to 17:10 27.19 27.14 27.09 27.12 27.07 27.06
2/22/2017 17:00 to 16:10 27.05 27.07 27.00 26.98 27.03 27.09
2/22/2017 16:00 to 15:10 27.02 27.06 27.09 26.99 26.89 26.90
2/22/2017 15:00 to 14:10 26.54 26.46 26.41 26.53 26.46 26.43
2/22/2017 14:00 to 13:10 26.49 26.46 26.43 26.41 26.31 26.37
2/22/2017 13:00 to 12:10 26.38 26.40 26.35 26.42 26.45 26.39
2/22/2017 12:00 to 11:10 26.48 26.40 26.38 26.42 26.38 26.30
2/22/2017 11:00 to 10:10 26.43 26.48 26.44 26.40 26.43 26.43
2/22/2017 10:00 to 9:10 -- -- -- -- -- --
2/22/2017 09:00 to 8:10 26.60 26.65 26.76 26.68 26.67 26.62
2/22/2017 08:00 to 7:10 26.89 26.67 26.72 26.67 26.76 26.73
2/22/2017 07:00 to 6:10 26.78 26.79 26.73 26.78 26.77 26.85
2/22/2017 06:00 to 5:10 26.82 26.85 26.87 26.87 26.95 26.83
2/22/2017 05:00 to 4:10 26.87 26.80 26.88 26.90 26.93 26.88
2/22/2017 04:00 to 3:10 26.92 26.89 26.91 27.02 26.95 26.82
2/22/2017 03:00 to 2:10 26.92 26.87 26.89 26.91 26.84 26.92
2/22/2017 02:00 to 1:10 27.13 27.13 27.24 27.20 27.27 27.09
2/22/2017 01:00 to 0:10 27.25 27.03 26.99 27.07 27.00 27.03
2/22/2017 00:00 to 23:10 27.01 26.98 27.03 27.00 27.11 26.96
2/21/2017 23:00 to 22:10 27.01 26.90 26.95 26.98 26.99 26.94
2/21/2017 22:00 to 21:10 27.02 27.00 26.75 26.92 26.86 26.93
2/21/2017 21:00 to 20:10 26.86 26.98 26.93 26.81 26.85 26.79
2/21/2017 20:00 to 19:10 26.79 26.80 26.87 26.93 26.81 26.91
2/21/2017 19:00 to 18:10 26.99 26.96 27.04 26.96 26.96 26.95
2/21/2017 18:00 to 17:10 26.99 26.96 26.88 27.02 27.04 26.95
2/21/2017 17:00 to 16:10 26.85 27.01 26.99 26.88 26.90 26.89
2/21/2017 16:00 to 15:10 26.97 26.95 26.82 26.74 26.76 26.53
2/21/2017 15:00 to 14:10 26.57 26.27 26.34 26.19 26.24 26.34
2/21/2017 14:00 to 13:10 26.35 26.30 26.23 26.27 26.30 26.12
2/21/2017 13:00 to 12:10 26.30 26.33 26.24 26.17 26.26 26.28
2/21/2017 12:00 to 11:10 26.28 26.23 26.19 26.26 26.27 26.25
2/21/2017 11:00 to 10:10 26.16 26.35 26.23 26.38 26.25 26.41
2/21/2017 10:00 to 9:10 26.31 26.43 26.36 26.39 26.34 26.41
2/21/2017 09:00 to 8:10 26.43 26.38 26.41 26.39 26.41 26.41
2/21/2017 08:00 to 7:10 26.49 26.55 26.51 26.55 26.60 26.61
2/21/2017 07:00 to 6:10 26.56 26.54 26.62 26.71 26.54 26.61
2/21/2017 06:00 to 5:10 26.59 26.56 26.58 26.61 26.58 26.68
2/21/2017 05:00 to 4:10 26.64 26.62 26.55 26.61 26.56 26.56
2/21/2017 04:00 to 3:10 26.55 26.59 26.57 26.59 26.77 26.54
2/21/2017 03:00 to 2:10 26.60 26.53 26.53 26.59 26.67 26.61
2/21/2017 02:00 to 1:10 26.56 26.66 26.70 26.72 26.70 26.70
2/21/2017 01:00 to 0:10 26.72 26.70 26.71 26.75 26.77 26.63
2/21/2017 00:00 to 23:10 26.87 26.81 26.49 26.71 26.78 26.75
2/20/2017 23:00 to 22:10 26.62 26.63 26.61 26.67 26.54 26.57
2/20/2017 22:00 to 21:10 26.70 26.62 26.50 26.46 26.56 26.44
2/20/2017 21:00 to 20:10 26.44 26.55 26.57 26.43 26.41 26.43
2/20/2017 20:00 to 19:10 26.48 26.36 26.44 26.36 26.50 26.35
2/20/2017 19:00 to 18:10 26.42 26.47 26.52 26.45 26.38 26.45
2/20/2017 18:00 to 17:10 26.46 26.47 26.45 26.30 26.56 26.48
2/20/2017 17:00 to 16:10 26.52 26.35 26.31 26.14 26.21 26.55
2/20/2017 16:00 to 15:10 26.70 26.45 26.48 26.25 26.03 26.02
2/20/2017 15:00 to 14:10 26.09 26.04 25.97 25.96 25.80 25.82
2/20/2017 14:00 to 13:10 25.78 25.88 25.85 25.76 25.77 25.89
2/20/2017 13:00 to 12:10 25.71 25.81 25.81 25.83 25.82 25.88
2/20/2017 12:00 to 11:10 25.82 25.76 25.88 25.90 25.76 25.88
2/20/2017 11:00 to 10:10 25.81 25.80 25.79 25.79 25.86 25.86
2/20/2017 10:00 to 9:10 25.83 25.98 25.90 25.89 25.82 25.86
2/20/2017 09:00 to 8:10 25.90 25.95 25.93 25.88 25.99 25.99
2/20/2017 08:00 to 7:10 25.96 26.04 26.05 25.98 26.12 26.09
2/20/2017 07:00 to 6:10 26.08 26.04 26.13 26.11 26.25 26.12
2/20/2017 06:00 to 5:10 26.19 26.20 26.17 26.20 26.13 26.16
2/20/2017 05:00 to 4:10 26.18 26.16 26.13 26.17 26.19 26.19
2/20/2017 04:00 to 3:10 26.09 26.19 26.20 26.10 26.10 26.14
2/20/2017 03:00 to 2:10 26.02 26.07 26.06 26.18 26.15 26.36
2/20/2017 02:00 to 1:10 26.33 26.30 26.36 26.27 26.44 26.37
2/20/2017 01:00 to 0:10 26.30 26.23 26.22 26.29 26.21 26.21
2/20/2017 00:00 to 23:10 26.17 26.22 26.25 26.24 26.04 26.13
2/19/2017 23:00 to 22:10 26.12 26.05 26.19 26.08 26.04 26.11
2/19/2017 22:00 to 21:10 26.11 26.05 26.08 26.05 26.03 26.09
2/19/2017 21:00 to 20:10 25.97 26.07 25.93 26.03 26.04 26.05
2/19/2017 20:00 to 19:10 25.88 25.99 26.15 25.98 26.00 26.04
2/19/2017 19:00 to 18:10 26.14 26.03 26.09 26.14 26.14 26.06
2/19/2017 18:00 to 17:10 26.15 26.20 26.22 26.32 26.13 26.24
2/19/2017 17:00 to 16:10 26.29 26.24 26.25 26.34 26.22 26.05
2/19/2017 16:00 to 15:10 25.64 26.37 26.29 26.32 26.36 26.22
2/19/2017 15:00 to 14:10 -- -- -- -- -- --
2/19/2017 14:00 to 13:10 25.86 25.91 25.94 25.83 25.96 25.89
2/19/2017 13:00 to 12:10 25.91 25.77 25.93 25.79 25.96 25.81
2/19/2017 12:00 to 11:10 25.87 26.05 26.01 25.99 25.90 26.00
2/19/2017 11:00 to 10:10 26.02 26.03 26.17 26.07 26.07 26.10
2/19/2017 10:00 to 9:10 -- -- -- -- -- --
2/19/2017 09:00 to 8:10 26.21 26.16 26.24 26.29 26.18 26.24
2/19/2017 08:00 to 7:10 26.34 26.40 26.28 26.39 26.32 26.41
2/19/2017 07:00 to 6:10 26.35 26.39 26.38 26.44 26.33 26.47
2/19/2017 06:00 to 5:10 26.33 26.34 26.38 26.43 26.40 26.42
2/19/2017 05:00 to 4:10 26.40 26.30 26.38 26.38 26.42 26.42
2/19/2017 04:00 to 3:10 26.39 26.44 26.34 26.48 26.42 26.39
2/19/2017 03:00 to 2:10 26.44 26.51 26.45 26.55 26.49 26.56
2/19/2017 02:00 to 1:10 26.72 26.66 26.69 26.61 26.71 26.73
2/19/2017 01:00 to 0:10 26.55 26.53 26.58 26.66 26.58 26.58
2/19/2017 00:00 to 23:10 26.54 26.50 26.44 26.52 26.47 26.43
2/18/2017 23:00 to 22:10 26.37 26.32 26.38 26.40 26.42 26.26
2/18/2017 22:00 to 21:10 26.41 26.29 26.34 26.40 26.35 26.34
2/18/2017 21:00 to 20:10 26.34 26.28 26.33 26.30 26.29 26.32
2/18/2017 20:00 to 19:10 26.40 26.24 26.24 26.28 26.34 26.30
2/18/2017 19:00 to 18:10 26.36 26.44 26.34 26.30 26.32 26.41
2/18/2017 18:00 to 17:10 26.38 26.37 26.39 26.44 26.31 26.41
2/18/2017 17:00 to 16:10 26.36 26.41 26.40 26.43 26.35 26.31
2/18/2017 16:00 to 15:10 26.47 26.34 26.34 26.22 26.06 26.20
2/18/2017 15:00 to 14:10 26.11 25.98 25.88 25.88 25.88 25.85
2/18/2017 14:00 to 13:10 25.90 25.88 25.94 25.81 25.81 25.83
2/18/2017 13:00 to 12:10 25.79 25.86 25.91 25.85 25.87 25.89
2/18/2017 12:00 to 11:10 25.95 25.94 25.96 25.91 25.96 26.01
2/18/2017 11:00 to 10:10 25.98 25.94 26.06 26.01 26.01 26.07
2/18/2017 10:00 to 9:10 26.07 26.02 26.09 25.99 26.06 26.19
2/18/2017 09:00 to 8:10 26.11 26.19 26.23 26.27 26.31 26.29
2/18/2017 08:00 to 7:10 26.29 26.33 26.39 26.31 26.41 26.38
2/18/2017 07:00 to 6:10 26.38 26.47 26.41 26.40 26.45 26.51
2/18/2017 06:00 to 5:10 26.52 26.55 26.40 26.44 26.45 26.53
2/18/2017 05:00 to 4:10 26.55 26.54 26.52 26.59 26.56 26.58
2/18/2017 04:00 to 3:10 26.59 26.63 26.58 26.61 26.63 26.65
2/18/2017 03:00 to 2:10 26.65 26.64 26.69 26.73 26.71 26.74
2/18/2017 02:00 to 1:10 26.79 26.78 27.06 26.97 26.94 27.05
2/18/2017 01:00 to 0:10 26.74 26.86 26.94 26.76 26.87 26.98
2/18/2017 00:00 to 23:10 26.83 26.84 26.78 26.81 26.79 26.82
2/17/2017 23:00 to 22:10 26.87 26.74 26.80 26.71 26.76 26.73
2/17/2017 22:00 to 21:10 26.64 26.70 26.68 26.68 26.61 26.76
2/17/2017 21:00 to 20:10 26.67 26.56 26.65 26.60 26.59 26.49
2/17/2017 20:00 to 19:10 26.53 26.59 26.53 26.63 26.64 26.66
2/17/2017 19:00 to 18:10 26.61 26.52 26.49 26.55 26.61 26.64
2/17/2017 18:00 to 17:10 26.69 26.76 26.73 26.68 26.68 26.77
2/17/2017 17:00 to 16:10 26.66 26.68 26.75 26.75 26.74 26.49
2/17/2017 16:00 to 15:10 26.56 26.02 26.20 26.00 25.86 25.89
2/17/2017 15:00 to 14:10 25.26 25.38 25.31 25.34 25.11 24.65
2/17/2017 14:00 to 13:10 24.36 24.06 23.74 24.50 24.59 24.77
2/17/2017 13:00 to 12:10 25.19 26.07 25.90 25.89 25.88 25.88
2/17/2017 12:00 to 11:10 25.89 25.74 25.58 25.59 25.55 26.00
2/17/2017 11:00 to 10:10 26.05 26.18 26.24 26.15 26.17 26.20
2/17/2017 10:00 to 9:10 26.22 26.17 26.21 26.29 26.30 26.33
2/17/2017 09:00 to 8:10 26.33 26.36 26.44 26.41 26.39 26.42
2/17/2017 08:00 to 7:10 26.28 26.40 26.40 26.35 26.42 26.43
2/17/2017 07:00 to 6:10 26.42 26.52 26.49 26.56 26.50 26.56
2/17/2017 06:00 to 5:10 26.54 26.53 26.59 26.57 26.65 26.67
2/17/2017 05:00 to 4:10 26.71 26.65 26.58 26.56 26.53 26.51
2/17/2017 04:00 to 3:10 26.62 26.43 26.43 26.38 26.43 26.41
2/17/2017 03:00 to 2:10 26.39 26.37 26.34 26.35 26.25 26.56
2/17/2017 02:00 to 1:10 26.68 26.51 26.89 26.92 26.92 27.02
2/17/2017 01:00 to 0:10 27.12 27.12 27.07 27.20 27.10 26.95
2/17/2017 00:00 to 23:10 26.89 26.69 26.86 26.99 27.04 26.89
2/16/2017 23:00 to 22:10 27.14 27.02 26.99 26.97 26.97 26.94
2/16/2017 22:00 to 21:10 26.95 26.94 26.97 26.88 26.83 26.89
2/16/2017 21:00 to 20:10 -- -- -- -- -- --
2/16/2017 20:00 to 19:10 26.75 26.76 26.83 26.84 26.84 26.84
2/16/2017 19:00 to 18:10 26.91 26.89 26.76 26.93 26.91 26.90
2/16/2017 18:00 to 17:10 26.93 26.87 26.96 27.00 26.94 26.90
2/16/2017 17:00 to 16:10 26.91 26.83 26.94 26.84 26.89 26.81
2/16/2017 16:00 to 15:10 26.75 26.92 26.91 26.76 26.74 26.59
2/16/2017 15:00 to 14:10 26.43 26.32 26.42 26.38 26.37 26.46
2/16/2017 14:00 to 13:10 26.37 26.40 26.38 26.41 26.32 26.34
2/16/2017 13:00 to 12:10 26.34 26.39 26.31 26.48 26.37 26.44
2/16/2017 12:00 to 11:10 26.37 26.38 26.43 26.37 26.40 26.34
2/16/2017 11:00 to 10:10 26.41 26.40 26.41 26.40 26.42 26.43
2/16/2017 10:00 to 9:10 26.46 26.42 26.50 26.47 26.52 26.46
2/16/2017 09:00 to 8:10 26.33 26.18 26.50 26.58 26.56 26.50
2/16/2017 08:00 to 7:10 26.61 26.63 26.69 26.69 26.67 26.73
2/16/2017 07:00 to 6:10 26.32 26.37 26.79 26.84 26.81 26.84
2/16/2017 06:00 to 5:10 26.78 26.80 26.88 26.69 26.54 26.37
2/16/2017 05:00 to 4:10 26.07 26.41 26.80 26.70 26.75 26.79
2/16/2017 04:00 to 3:10 26.80 26.70 26.81 26.74 26.74 26.84
2/16/2017 03:00 to 2:10 26.73 26.75 26.81 26.82 26.85 26.91
2/16/2017 02:00 to 1:10 26.73 26.55 26.85 26.74 26.86 26.92
2/16/2017 01:00 to 0:10 26.94 26.88 26.92 26.88 26.93 26.93